Location: Barrio Las Umbrías
(40.4173°N, 4.8685°W)
Time: 12:48:48
(UTC+00:00)

Terra - Pass Details

Date: 17 August 2022
Orbit: 701 x 703 km, 98.1° (Epoch: 28 September)

Event Time Altitude Azimuth Distance (km) Brightness Sun altitude
Exits shadow 22:17:47 59° 320° (NW) 816 2.3 -29.0°
Drops below altitude 10° 22:21:44 10° 344° (NNW) 2,178 5.2 -29.4°
Sets 22:24:00 0° 346° (NNW) 3,101 6.2 -29.7°
